• In Russia
  • List of Countries
  • For 7 days
  • Water Temperature
  • Satellite Maps
  • Weather Map
  • Weather Widgets
  • user-avatar
    Login

    Hourly Weather Canberra

    Today, 22 April, Monday

    Time Temperature Precipitation Wind Pressure Humidity
    00:00 +15°C° 0 mm 0 mps 713 mmHg 85%
    01:00 +15°C° 0 mm 0 mps 713 mmHg 87%
    02:00 +15°C° 0 mm 0 mps 713 mmHg 87%
    03:00 +16°C° 0 mm 1 mps 713 mmHg 87%
    04:00 +16°C° 0 mm 1 mps 713 mmHg 86%
    05:00 +15°C° 0 mm 1 mps 713 mmHg 87%
    06:00 +15°C° 0 mm 1 mps 714 mmHg 88%
    07:00 +15°C° 0 mm 1 mps 714 mmHg 88%
    08:00 +19°C° 0.1 mm 1 mps 714 mmHg 78%
    09:00 +20°C° 0.1 mm 0 mps 715 mmHg 67%
    10:00 +23°C° 0 mm 0 mps 715 mmHg 53%
    11:00 +24°C° 0.4 mm 0 mps 715 mmHg 52%
    12:00 +26°C° 0.4 mm 1 mps 715 mmHg 50%
    13:00 +26°C° 0.4 mm 1 mps 715 mmHg 49%
    14:00 +25°C° 1 mm 2 mps 715 mmHg 56%
    15:00 +24°C° 1 mm 2 mps 715 mmHg 64%
    16:00 +21°C° 0 mm 2 mps 714 mmHg 72%
    17:00 +20°C° 1 mm 2 mps 715 mmHg 78%
    18:00 +19°C° 1 mm 3 mps 715 mmHg 84%
    19:00 +17°C° 1 mm 3 mps 715 mmHg 91%
    20:00 +17°C° 0 mm 3 mps 716 mmHg 92%
    21:00 +16°C° 0 mm 3 mps 716 mmHg 93%
    22:00 +16°C° 0 mm 3 mps 716 mmHg 95%
    23:00 +16°C° 0 mm 3 mps 716 mmHg 94%

    Tomorrow, 23 April, Tuesday

    Time Temperature Precipitation Wind Pressure Humidity
    00:00 +16°C° 0 mm 3 mps 716 mmHg 92%
    01:00 +16°C° 0 mm 3 mps 717 mmHg 91%
    02:00 +16°C° 0 mm 3 mps 717 mmHg 91%
    03:00 +15°C° 0 mm 2 mps 716 mmHg 91%
    04:00 +15°C° 0 mm 2 mps 716 mmHg 92%
    05:00 +15°C° 0 mm 2 mps 716 mmHg 93%
    06:00 +14°C° 0 mm 1 mps 716 mmHg 95%
    07:00 +14°C° 0 mm 1 mps 717 mmHg 96%
    08:00 +15°C° 0 mm 1 mps 717 mmHg 90%
    09:00 +17°C° 0 mm 2 mps 717 mmHg 84%
    10:00 +19°C° 0 mm 2 mps 717 mmHg 78%
    11:00 +20°C° 0 mm 2 mps 717 mmHg 72%
    12:00 +21°C° 0 mm 2 mps 717 mmHg 65%
    13:00 +23°C° 0 mm 2 mps 717 mmHg 59%
    14:00 +23°C° 0 mm 2 mps 716 mmHg 60%
    15:00 +23°C° 0 mm 2 mps 716 mmHg 61%
    16:00 +21°C° 0 mm 2 mps 716 mmHg 62%
    17:00 +19°C° 0 mm 2 mps 716 mmHg 73%
    18:00 +18°C° 0 mm 2 mps 716 mmHg 84%
    19:00 +16°C° 0 mm 2 mps 716 mmHg 95%
    20:00 +15°C° 0 mm 1 mps 716 mmHg 95%
    21:00 +15°C° 0 mm 1 mps 716 mmHg 96%
    22:00 +15°C° 0 mm 1 mps 717 mmHg 97%
    23:00 +15°C° 0 mm 1 mps 716 mmHg 95%

    Day after tomorrow, 24 April, Wednesday

    Time Temperature Precipitation Wind Pressure Humidity
    00:00 +16°C° 0 mm 1 mps 716 mmHg 93%
    01:00 +16°C° 0 mm 1 mps 716 mmHg 92%
    02:00 +15°C° 0 mm 1 mps 716 mmHg 93%
    03:00 +15°C° 0 mm 1 mps 715 mmHg 95%
    04:00 +14°C° 0 mm 1 mps 715 mmHg 96%
    05:00 +13°C° 0 mm 0 mps 715 mmHg 96%
    06:00 +13°C° 0 mm 0 mps 715 mmHg 96%
    07:00 +12°C° 0 mm 0 mps 715 mmHg 96%
    08:00 +16°C° 0 mm 1 mps 716 mmHg 85%
    09:00 +19°C° 0 mm 1 mps 716 mmHg 74%
    10:00 +21°C° 0 mm 2 mps 716 mmHg 63%
    11:00 +23°C° 0 mm 2 mps 716 mmHg 58%
    12:00 +24°C° 0 mm 3 mps 715 mmHg 53%
    13:00 +25°C° 0 mm 3 mps 715 mmHg 48%
    14:00 +25°C° 0 mm 3 mps 714 mmHg 49%
    15:00 +25°C° 0 mm 3 mps 714 mmHg 51%
    16:00 +24°C° 0 mm 3 mps 713 mmHg 52%
    17:00 +21°C° 0 mm 3 mps 713 mmHg 61%
    18:00 +19°C° 0 mm 2 mps 713 mmHg 70%
    19:00 +17°C° 0 mm 2 mps 713 mmHg 79%
    20:00 +18°C° 0 mm 1 mps 713 mmHg 81%
    21:00 +16°C° 0 mm 1 mps 713 mmHg 84%
    22:00 +16°C° 0 mm 1 mps 713 mmHg 86%
    23:00 +15°C° 0 mm 1 mps 713 mmHg 87%

    25 April, Thursday

    Time Temperature Precipitation Wind Pressure Humidity
    00:00 +15°C° 0 mm 1 mps 713 mmHg 89%
    01:00 +15°C° 0 mm 1 mps 713 mmHg 90%
    02:00 +14°C° 0 mm 1 mps 712 mmHg 91%
    03:00 +14°C° 0 mm 1 mps 712 mmHg 92%
    04:00 +14°C° 0 mm 1 mps 712 mmHg 94%
    05:00 +14°C° 0 mm 1 mps 712 mmHg 94%
    06:00 +13°C° 0 mm 1 mps 712 mmHg 94%
    07:00 +13°C° 0 mm 1 mps 713 mmHg 95%
    08:00 +16°C° 0 mm 2 mps 713 mmHg 80%
    09:00 +18°C° 0 mm 2 mps 714 mmHg 65%
    10:00 +21°C° 0 mm 3 mps 714 mmHg 50%
    11:00 +21°C° 0 mm 3 mps 714 mmHg 46%
    12:00 +22°C° 0 mm 4 mps 713 mmHg 42%
    13:00 +23°C° 0 mm 4 mps 713 mmHg 38%
    14:00 +23°C° 0 mm 4 mps 712 mmHg 40%
    15:00 +22°C° 0 mm 4 mps 712 mmHg 42%
    16:00 +21°C° 0 mm 4 mps 711 mmHg 45%
    17:00 +19°C° 0 mm 3 mps 711 mmHg 52%
    18:00 +17°C° 0 mm 3 mps 711 mmHg 59%
    19:00 +15°C° 0 mm 2 mps 711 mmHg 66%
    20:00 +14°C° 0 mm 2 mps 711 mmHg 66%
    21:00 +13°C° 0 mm 2 mps 711 mmHg 65%
    22:00 +13°C° 0 mm 2 mps 711 mmHg 65%
    23:00 +12°C° 0 mm 2 mps 710 mmHg 64%

    26 April, Friday

    Time Temperature Precipitation Wind Pressure Humidity
    00:00 +11°C° 0 mm 3 mps 710 mmHg 64%
    01:00 +11°C° 0 mm 3 mps 709 mmHg 64%
    02:00 +11°C° 0 mm 3 mps 709 mmHg 65%
    03:00 +11°C° 0 mm 4 mps 709 mmHg 65%
    04:00 +11°C° 0 mm 4 mps 708 mmHg 66%
    05:00 +11°C° 0 mm 4 mps 709 mmHg 69%
    06:00 +10°C° 0 mm 5 mps 709 mmHg 72%
    07:00 +10°C° 0 mm 5 mps 709 mmHg 75%
    08:00 +11°C° 0 mm 6 mps 709 mmHg 67%
    09:00 +13°C° 0 mm 6 mps 709 mmHg 60%
    10:00 +15°C° 0 mm 7 mps 710 mmHg 52%
    11:00 +15°C° 0 mm 7 mps 709 mmHg 51%
    12:00 +15°C° 0 mm 7 mps 709 mmHg 50%
    13:00 +15°C° 0 mm 7 mps 708 mmHg 49%
    14:00 +15°C° 0 mm 7 mps 709 mmHg 51%
    15:00 +14°C° 0 mm 6 mps 709 mmHg 52%
    16:00 +13°C° 0 mm 6 mps 709 mmHg 54%
    17:00 +12°C° 0 mm 5 mps 710 mmHg 55%
    18:00 +10°C° 0 mm 4 mps 711 mmHg 57%
    19:00 +8°C° 0 mm 2 mps 712 mmHg 59%
    20:00 +7°C° 0 mm 2 mps 712 mmHg 60%
    21:00 +7°C° 0 mm 2 mps 713 mmHg 61%
    22:00 +6°C° 0 mm 2 mps 713 mmHg 62%
    23:00 +5°C° 0 mm 2 mps 713 mmHg 65%

    27 April, Saturday

    Time Temperature Precipitation Wind Pressure Humidity
    00:00 +5°C° 0 mm 2 mps 713 mmHg 67%
    01:00 +5°C° 0 mm 1 mps 713 mmHg 70%
    02:00 +5°C° 0 mm 1 mps 713 mmHg 71%
    03:00 +5°C° 0 mm 1 mps 713 mmHg 71%
    04:00 +4°C° 0 mm 1 mps 713 mmHg 72%
    05:00 +4°C° 0 mm 1 mps 714 mmHg 72%
    06:00 +4°C° 0 mm 1 mps 714 mmHg 73%
    07:00 +4°C° 0 mm 1 mps 714 mmHg 73%
    08:00 +7°C° 0 mm 1 mps 715 mmHg 63%
    09:00 +10°C° 0 mm 1 mps 715 mmHg 52%
    10:00 +13°C° 0 mm 2 mps 715 mmHg 42%
    11:00 +14°C° 0 mm 2 mps 715 mmHg 39%
    12:00 +16°C° 0 mm 2 mps 714 mmHg 37%
    13:00 +17°C° 0 mm 2 mps 714 mmHg 34%
    14:00 +17°C° 0 mm 2 mps 713 mmHg 36%
    15:00 +17°C° 0 mm 3 mps 713 mmHg 39%
    16:00 +16°C° 0 mm 3 mps 713 mmHg 41%
    17:00 +13°C° 0 mm 3 mps 713 mmHg 50%
    18:00 +12°C° 0 mm 2 mps 713 mmHg 58%
    19:00 +9°C° 0 mm 2 mps 714 mmHg 66%
    20:00 +8°C° 0 mm 2 mps 714 mmHg 70%
    21:00 +8°C° 0 mm 1 mps 714 mmHg 73%
    22:00 +8°C° 0 mm 1 mps 714 mmHg 77%
    23:00 +7°C° 0 mm 1 mps 714 mmHg 79%
    Show more